Home   Weather   Valdivia   Past weeks

Flag for Chile Past Weather in Valdivia, Chile — Yesterday and Last 2 Weeks

Now
72 °F

Scattered clouds.


Feels Like: 76 °F
Forecast: N/A
Wind: 10 mph from Southwest

Location: Puerto Montt Airport

Current Time: Jan 21, 2017 at 6:43:44 pm

Latest Report: Jan 21, 2017 at 6:00 pm


Visibility: N/A

Pressure: 30.12 "Hg

Humidity: 61%

Dew Point: 57 °F

Location of ValdiviaLocation

Past Weather in Valdivia — Graph

°F

Valdivia Temperature Yesterday

Maximum temperature yesterday: 72 °F (at 3:00 pm)
Minimum temperature yesterday: 57 °F (at 6:00 am)
Average temperature yesterday: 64 °F

High & Low Weather Summary for the Past Weeks

 TemperatureHumidityPressure
High77 °F (Jan 19, 6:00 pm)100% (Jan 7, 7:00 am)30.21 "Hg (Jan 7, 7:00 am)
Low41 °F (Jan 17, 5:00 am)46% (Jan 11, 4:00 pm)29.68 "Hg (Jan 8, 6:00 pm)
Average58 °F79%30.02 "Hg
* Reported Jan 6 5:00 pm — Jan 21 5:00 pm, Valdivia, Weather by CustomWeather, © 2017

Note: Actual official high and low records may vary slightly from our data, if they occured in-between our weather recording intervals... More about our weather records

Advertising

Valdivia Weather History for the Previous 24 Hours

Scroll right to see more
 ConditionsComfort  
Time TempWeatherWind HumidityBarometerVisibility
5:00 pm
Sat, Jan 21
72 °FScattered clouds.9 mph57%30.12 "HgN/A
4:00 pm73 °FScattered clouds.8 mph57%30.12 "HgN/A
3:00 pm73 °FScattered clouds.7 mph53%30.12 "HgN/A
2:00 pm72 °FScattered clouds.6 mph61%30.15 "HgN/A
1:00 pm72 °FScattered clouds.6 mph53%30.15 "HgN/A
12:00 pm70 °FScattered clouds.3 mph57%30.15 "HgN/A
11:00 am68 °FScattered clouds.5 mph64%30.15 "HgN/A
10:00 am66 °FPassing clouds.2 mph73%30.15 "HgN/A
9:00 am59 °FPassing clouds.No wind94%30.15 "HgN/A
8:00 am54 °FBroken clouds.No wind94%30.15 "HgN/A
7:00 am52 °FBroken clouds.No wind94%30.12 "HgN/A
6:00 am52 °FPassing clouds.No wind94%30.12 "HgN/A
5:00 am52 °FPassing clouds.No wind94%30.12 "HgN/A
4:00 am54 °FPassing clouds.No wind94%30.12 "HgN/A
3:00 am55 °FPassing clouds.No wind94%30.12 "HgN/A
2:00 am54 °FFog.2 mph94%30.15 "Hg4 mi
1:00 am55 °FClear.No wind88%30.15 "Hg10 mi
12:00 am59 °FClear.5 mph82%30.15 "Hg10 mi
11:00 pm
Fri, Jan 20
59 °FClear.5 mph77%30.15 "Hg10 mi
10:00 pm63 °FPassing clouds.5 mph64%30.15 "HgN/A
9:00 pm68 °FScattered clouds.6 mph53%30.12 "HgN/A
8:00 pm70 °FScattered clouds.8 mph46%30.12 "HgN/A
7:00 pm72 °FPartly sunny.10 mph47%30.09 "HgN/A
6:00 pm70 °FPartly sunny.12 mph50%30.09 "HgN/A
Weather by CustomWeather, © 2017

See weather overviewHow to use our weather pages